GW0309 Weather Reports


Display with metric or nautical units.
time (UTC)temp
F
wind
direction
speed
MPH
gust
MPH
rain 1hr
in
rain 24hr
in
rain mn
in
humidity
%
barometer
mb
20260504050415 0 150 1.0 8.0 0.00 0.00 0.00 1057.3
20260504045912 0 183 4.0 7.0 0.00 0.00 0.00 1057.3
20260504045408 0 142 1.0 6.0 0.00 0.00 0.00 1057.6
20260504044904 0 160 1.0 2.0 0.00 0.00 0.00 1057.5
20260504044401 0 146 1.0 2.0 0.00 0.00 0.00 1057.6
20260504043859 0 160 3.0 5.0 0.00 0.00 0.00 1057.6
20260504043355 0 139 2.0 7.0 0.00 0.00 0.00 1057.7
20260504042853 0 163 2.0 3.0 0.00 0.00 0.00 1057.7
20260504042349 0 155 2.0 3.0 0.00 0.00 0.00 1057.4
20260504041845 0 161 2.0 2.0 0.00 0.00 0.00 1057.7
20260504041342 0 184 3.0 5.0 0.00 0.00 0.00 1057.9
20260504040838 0 162 3.0 5.0 0.00 0.00 0.00 1058.0
20260504040336 0 139 1.0 2.0 0.00 0.00 0.00 1057.9
20260504035831 0 172 2.0 8.0 0.00 0.00 0.00 1057.9
20260504035330 0 176 2.0 2.0 0.00 0.00 0.00 1057.7
20260504034826 0 165 1.0 2.0 0.00 0.00 0.00 1058.2
20260504034324 0 155 2.0 3.0 0.00 0.00 0.00 1058.0
20260504033821 0 171 2.0 2.0 0.00 0.00 0.00 1058.3
20260504033319 0 137 1.0 2.0 0.00 0.00 0.00 1058.4
20260504032815 0 148 1.0 3.0 0.00 0.00 0.00 1058.2
20260504032312 0 140 1.0 3.0 0.00 0.00 0.00 1058.3
20260504031804 0 153 1.0 3.0 0.00 0.00 0.00 1058.2
20260504031301 0 176 3.0 3.0 0.00 0.00 0.00 1058.2
20260504030757 0 145 1.0 5.0 0.00 0.00 0.00 1058.2
20260504030254 0 140 2.0 3.0 0.00 0.00 0.00 1058.3
20260504025750 0 170 2.0 2.0 0.00 0.00 0.00 1058.6
20260504025248 0 152 1.0 5.0 0.00 0.00 0.00 1058.5
20260504024744 0 169 2.0 2.0 0.00 0.00 0.00 1058.4
20260504024241 0 158 1.0 3.0 0.00 0.00 0.00 1058.4
20260504023738 0 175 3.0 3.0 0.00 0.00 0.00 1058.5
20260504023234 0 144 1.0 2.0 0.00 0.00 0.00 1058.4
20260504022730 0 149 1.0 3.0 0.00 0.00 0.00 1058.5
20260504022226 0 143 1.0 1.0 0.00 0.00 0.00 1058.3
20260504021723 0 134 1.0 1.0 0.00 0.00 0.00 1058.7
20260504021220 0 135 1.0 1.0 0.00 0.00 0.00 1058.4
20260504020712 0 133 0.0 2.0 0.00 0.00 0.00 1058.4
20260504020208 0 137 1.0 1.0 0.00 0.00 0.00 1058.3
20260504015704 0 146 1.0 1.0 0.00 0.00 0.00 1058.4
20260504015201 0 155 1.0 1.0 0.00 0.00 0.00 1058.2
20260504014656 0 128 0.0 1.0 0.00 0.00 0.00 1058.2
20260504014154 0 133 1.0 1.0 0.00 0.00 0.00 1058.3
20260504013652 0 146 1.0 1.0 0.00 0.00 0.00 1058.1
20260504013148 0 128 0.0 1.0 0.00 0.00 0.00 1058.2
20260504012645 0 154 0.0 1.0 0.00 0.00 0.00 1058.2
20260504012143 0 128 0.0 1.0 0.00 0.00 0.00 1058.1
20260504011639 0 150 1.0 1.0 0.00 0.00 0.00 1058.3
20260504011136 0 136 0.0 1.0 0.00 0.00 0.00 1058.0
20260504010626 0 152 1.0 2.0 0.00 0.00 0.00 1058.0
20260504010122 0 134 1.0 2.0 0.00 0.00 0.00 1058.1
20260504005619 0 150 1.0 2.0 0.00 0.00 0.00 1058.1
20260504005116 0 129 0.0 1.0 0.00 0.00 0.00 1058.2
20260504004614 0 145 1.0 2.0 0.00 0.00 0.00 1058.3
20260504004111 0 132 1.0 1.0 0.00 0.00 0.00 1058.2
20260504003607 0 135 1.0 1.0 0.00 0.00 0.00 1058.2
20260504003103 0 137 0.0 1.0 0.00 0.00 0.00 1058.1
20260504002600 0 127 0.0 1.0 0.00 0.00 0.00 1058.3
20260504002058 0 127 1.0 1.0 0.00 0.00 0.00 1058.3
20260504001555 0 138 1.0 5.0 0.00 0.00 0.00 1058.3
20260504001051 0 139 0.0 2.0 0.00 0.00 0.00 1058.3
20260504000548 0 145 2.0 2.0 0.00 0.00 0.00 1058.3
20260504000046 0 140 0.0 1.0 0.00 0.00 0.00 1058.4
20260503235544 0 150 0.0 2.0 0.00 0.00 0.00 1058.1
20260503235041 0 178 3.0 3.0 0.00 0.00 0.00 1058.2
20260503234538 0 177 1.0 5.0 0.00 0.00 0.00 1058.3
20260503234037 0 161 3.0 6.0 0.00 0.00 0.00 1058.2
20260503233532 0 161 1.0 3.0 0.00 0.00 0.00 1058.2
20260503233028 0 129 2.0 2.0 0.00 0.00 0.00 1058.1
20260503232526 0 282 2.0 7.0 0.00 0.00 0.00 1058.4
20260503232023 0 211 3.0 6.0 0.00 0.00 0.00 1058.3
20260503231521 0 191 2.0 7.0 0.00 0.00 0.00 1058.2
20260503231018 0 131 1.0 2.0 0.00 0.00 0.00 1058.4
20260503230514 0 149 3.0 7.0 0.00 0.00 0.00 1058.3
20260503230012 0 236 3.0 6.0 0.00 0.00 0.00 1058.1
20260503225509 0 234 4.0 6.0 0.00 0.00 0.00 1058.4
20260503225004 0 167 3.0 3.0 0.00 0.00 0.00 1058.2
20260503224502 0 261 2.0 9.0 0.00 0.00 0.00 1058.3
20260503223959 0 242 2.0 6.0 0.00 0.00 0.00 1058.3
20260503223457 0 230 5.0 8.0 0.00 0.00 0.00 1058.5
20260503222952 0 281 3.0 8.0 0.00 0.00 0.00 1058.5
20260503222450 0 165 2.0 10.0 0.00 0.00 0.00 1058.4
20260503221948 0 221 3.0 6.0 0.00 0.00 0.00 1058.5
20260503221446 0 201 3.0 5.0 0.00 0.00 0.00 1058.4
20260503220943 0 176 1.0 8.0 0.00 0.00 0.00 1058.3
20260503220439 0 168 2.0 5.0 0.00 0.00 0.00 1058.2
20260503215936 0 138 1.0 5.0 0.00 0.00 0.00 1058.5
20260503215433 0 173 2.0 3.0 0.00 0.00 0.00 1058.6
20260503214931 0 280 5.0 10.0 0.00 0.00 0.00 1058.7
20260503214429 0 166 2.0 3.0 0.00 0.00 0.00 1058.9
20260503213926 0 167 3.0 7.0 0.00 0.00 0.00 1058.9
20260503213424 0 318 3.0 5.0 0.00 0.00 0.00 1058.5
20260503212920 0 150 2.0 5.0 0.00 0.00 0.00 1058.8
20260503212417 0 193 1.0 6.0 0.00 0.00 0.00 1059.0
20260503211915 0 180 3.0 6.0 0.00 0.00 0.00 1059.2
20260503211412 0 216 3.0 5.0 0.00 0.00 0.00 1058.8
20260503210907 0 254 3.0 7.0 0.00 0.00 0.00 1059.3
20260503210404 0 308 4.0 6.0 0.00 0.00 0.00 1059.3
20260503205858 0 273 4.0 6.0 0.00 0.00 0.00 1059.5
20260503205355 0 234 3.0 6.0 0.00 0.00 0.00 1059.5
20260503204852 0 183 2.0 6.0 0.00 0.00 0.00 1059.5
20260503204349 0 157 1.0 5.0 0.00 0.00 0.00 1059.7
20260503203846 0 206 3.0 3.0 0.00 0.00 0.00 1059.7
20260503203344 0 173 3.0 5.0 0.00 0.00 0.00 1059.9
20260503202841 0 134 2.0 5.0 0.00 0.00 0.00 1059.8
20260503202339 0 180 2.0 5.0 0.00 0.00 0.00 1059.9
20260503201837 0 207 3.0 3.0 0.00 0.00 0.00 1060.2
20260503201333 0 133 1.0 5.0 0.00 0.00 0.00 1060.1
20260503200831 0 129 2.0 5.0 0.00 0.00 0.00 1060.3
20260503200327 0 181 1.0 7.0 0.00 0.00 0.00 1060.4
20260503195824 0 185 1.0 8.0 0.00 0.00 0.00 1060.7
20260503195320 0 150 5.0 6.0 0.00 0.00 0.00 1060.4
20260503194818 0 160 3.0 5.0 0.00 0.00 0.00 1060.8
20260503194314 0 184 2.0 3.0 0.00 0.00 0.00 1060.9
20260503193810 0 125 3.0 5.0 0.00 0.00 0.00 1061.0
20260503193306 0 161 2.0 7.0 0.00 0.00 0.00 1060.9
20260503192802 0 141 2.0 6.0 0.00 0.00 0.00 1061.2
20260503192257 0 212 5.0 6.0 0.00 0.00 0.00 1061.4
20260503191754 0 274 4.0 8.0 0.00 0.00 0.00 1061.2
20260503191251 0 195 4.0 6.0 0.00 0.00 0.00 1061.3
20260503190743 0 32 6.0 8.0 0.00 0.00 0.00 1061.4
20260503190239 0 247 3.0 6.0 0.00 0.00 0.00 1061.3
20260503185736 0 141 3.0 3.0 0.00 0.00 0.00 1061.3
20260503185232 0 133 1.0 6.0 0.00 0.00 0.00 1061.5
20260503184727 0 148 1.0 3.0 0.00 0.00 0.00 1061.6
20260503184223 0 157 3.0 9.0 0.00 0.00 0.00 1061.6
20260503183719 0 162 2.0 5.0 0.00 0.00 0.00 1061.8
20260503183217 0 135 1.0 5.0 0.00 0.00 0.00 1061.6
20260503182715 0 184 3.0 14.0 0.00 0.00 0.00 1061.8
20260503182213 0 132 2.0 7.0 0.00 0.00 0.00 1061.9
20260503181709 0 215 2.0 6.0 0.00 0.00 0.00 1062.2
20260503181207 0 136 1.0 3.0 0.00 0.00 0.00 1062.0
20260503180703 0 145 2.0 6.0 0.00 0.00 0.00 1062.1
20260503180202 0 198 2.0 7.0 0.00 0.00 0.00 1062.2
20260503175658 0 120 1.0 6.0 0.00 0.00 0.00 1062.5
20260503175155 0 209 3.0 6.0 0.00 0.00 0.00 1062.4
20260503174651 0 156 4.0 7.0 0.00 0.00 0.00 1062.7
20260503174149 0 151 2.0 3.0 0.00 0.00 0.00 1062.8
20260503173644 0 147 2.0 5.0 0.00 0.00 0.00 1062.9
20260503173141 0 195 3.0 5.0 0.00 0.00 0.00 1062.9
20260503172638 0 159 1.0 2.0 0.00 0.00 0.00 1062.9
20260503172135 0 129 1.0 2.0 0.00 0.00 0.00 1063.5
20260503171631 0 136 2.0 7.0 0.00 0.00 0.00 1063.3
20260503171129 0 105 2.0 5.0 0.00 0.00 0.00 1063.6
20260503170626 0 182 3.0 5.0 0.00 0.00 0.00 1063.5
20260503170122 0 145 4.0 10.0 0.00 0.00 0.00 1063.6
20260503150514 0 147 2.0 5.0 0.00 0.00 0.00 1065.0
20260503131407 0 162 5.0 6.0 0.00 0.00 0.00 1065.4
20260503130904 0 152 3.0 5.0 0.00 0.00 0.00 1065.3
20260503130402 0 146 2.0 6.0 0.00 0.00 0.00 1065.4
20260503110755 0 148 2.0 6.0 0.00 0.00 0.00 1064.8
20260503110252 0 154 2.0 3.0 0.00 0.00 0.00 1064.9
20260503100224 0 171 3.0 6.0 0.00 0.00 0.00 1065.2
20260503090148 0 158 3.0 3.0 0.00 0.00 0.00 1065.5
20260503081623 0 146 1.0 2.0 0.00 0.00 0.00 1066.1
20260503081121 0 157 2.0 3.0 0.00 0.00 0.00 1065.7
20260503080616 0 161 1.0 3.0 0.00 0.00 0.00 1065.8
20260503080113 0 163 2.0 2.0 0.00 0.00 0.00 1066.0
20260503072550 0 144 1.0 2.0 0.00 0.00 0.00 1066.3